TimeMST,TemperatureF,Dew PointF,Humidity,Sea Level PressureIn,VisibilityMPH,Wind Direction,Wind SpeedMPH,Gust SpeedMPH,PrecipitationIn,Events,Conditions,WindDirDegrees,DateUTC
12:15 AM,17.6,15.8,93,29.96,9.0,Calm,Calm,-,N/A,,Clear,0,2012-11-30 07:15:00
12:35 AM,17.6,17.6,100,29.95,9.0,NE,3.5,-,N/A,,Clear,50,2012-11-30 07:35:00
12:55 AM,17.6,15.8,93,29.94,9.0,NE,3.5,-,N/A,,Clear,50,2012-11-30 07:55:00
1:15 AM,19.4,17.6,93,29.93,9.0,East,5.8,-,N/A,,Clear,100,2012-11-30 08:15:00
1:35 AM,19.4,17.6,93,29.93,8.0,East,4.6,-,N/A,,Clear,90,2012-11-30 08:35:00
1:55 AM,19.4,17.6,93,29.93,9.0,East,4.6,-,N/A,,Clear,80,2012-11-30 08:55:00
2:15 AM,21.2,17.6,86,29.92,10.0,East,4.6,-,N/A,,Clear,90,2012-11-30 09:15:00
2:35 AM,21.2,17.6,86,29.92,10.0,East,3.5,-,N/A,,Clear,80,2012-11-30 09:35:00
2:55 AM,23.0,19.4,86,29.91,10.0,Calm,Calm,-,N/A,,Clear,0,2012-11-30 09:55:00
3:15 AM,21.2,15.8,80,29.91,9.0,Calm,Calm,-,N/A,,Clear,0,2012-11-30 10:15:00
3:35 AM,21.2,15.8,80,29.89,10.0,Calm,Calm,-,N/A,,Clear,0,2012-11-30 10:35:00
3:55 AM,19.4,17.6,93,29.89,10.0,Calm,Calm,-,N/A,,Clear,0,2012-11-30 10:55:00
4:15 AM,21.2,17.6,86,29.88,10.0,ESE,4.6,-,N/A,,Clear,110,2012-11-30 11:15:00
4:35 AM,21.2,17.6,86,29.88,10.0,ESE,3.5,-,N/A,,Clear,110,2012-11-30 11:35:00
4:55 AM,23.0,19.4,86,29.88,10.0,ENE,4.6,-,N/A,,Clear,70,2012-11-30 11:55:00
5:15 AM,21.2,17.6,86,29.87,10.0,East,6.9,-,N/A,,Clear,100,2012-11-30 12:15:00
5:35 AM,21.2,17.6,86,29.86,10.0,ESE,4.6,-,N/A,,Clear,120,2012-11-30 12:35:00
5:55 AM,21.2,17.6,86,29.84,10.0,East,3.5,-,N/A,,Scattered Clouds,100,2012-11-30 12:55:00
6:15 AM,23.0,19.4,86,29.83,10.0,Calm,Calm,-,N/A,,Partly Cloudy,0,2012-11-30 13:15:00
6:35 AM,21.2,19.4,93,29.82,10.0,SE,3.5,-,N/A,,Clear,130,2012-11-30 13:35:00
6:55 AM,21.2,19.4,93,29.82,10.0,South,3.5,-,N/A,,Clear,190,2012-11-30 13:55:00
7:15 AM,21.2,17.6,86,29.81,10.0,Calm,Calm,-,N/A,,Clear,0,2012-11-30 14:15:00
7:35 AM,19.4,17.6,93,29.81,9.0,Calm,Calm,-,N/A,,Clear,0,2012-11-30 14:35:00
7:55 AM,19.4,17.6,93,29.80,10.0,Calm,Calm,-,N/A,,Clear,0,2012-11-30 14:55:00
8:15 AM,19.4,17.6,93,29.81,10.0,Calm,Calm,-,N/A,,Clear,0,2012-11-30 15:15:00
8:35 AM,23.0,21.2,93,29.80,10.0,Calm,Calm,-,N/A,,Clear,0,2012-11-30 15:35:00
8:55 AM,21.2,19.4,93,29.81,9.0,South,3.5,-,N/A,,Clear,170,2012-11-30 15:55:00
9:15 AM,23.0,21.2,93,29.80,9.0,Calm,Calm,-,N/A,,Clear,0,2012-11-30 16:15:00
9:35 AM,24.8,21.2,86,29.79,10.0,SSE,3.5,-,N/A,,Clear,160,2012-11-30 16:35:00
10:15 AM,26.6,24.8,93,29.78,10.0,SSE,3.5,-,N/A,,Clear,160,2012-11-30 17:15:00
10:35 AM,28.4,24.8,86,29.78,10.0,South,3.5,-,N/A,,Clear,190,2012-11-30 17:35:00
10:55 AM,30.2,26.6,86,29.77,10.0,SSW,5.8,-,N/A,,Clear,210,2012-11-30 17:55:00
11:15 AM,30.2,26.6,86,29.75,10.0,South,5.8,-,N/A,,Clear,170,2012-11-30 18:15:00
11:35 AM,30.2,26.6,86,29.75,10.0,South,5.8,-,N/A,,Clear,170,2012-11-30 18:35:00
11:55 AM,30.2,26.6,86,29.72,10.0,South,3.5,-,N/A,,Clear,170,2012-11-30 18:55:00
12:15 PM,32.0,28.4,87,29.71,10.0,South,3.5,-,N/A,,Clear,180,2012-11-30 19:15:00
12:35 PM,33.8,28.4,81,29.71,10.0,SSW,3.5,-,N/A,,Clear,210,2012-11-30 19:35:00
12:55 PM,35.6,28.4,75,29.69,10.0,SSW,3.5,-,N/A,,Clear,200,2012-11-30 19:55:00
1:15 PM,37.4,30.2,75,29.69,10.0,SSE,6.9,-,N/A,,Clear,160,2012-11-30 20:15:00
1:35 PM,35.6,30.2,81,29.68,10.0,South,3.5,-,N/A,,Clear,180,2012-11-30 20:35:00
1:55 PM,35.6,30.2,81,29.66,10.0,Calm,Calm,-,N/A,,Clear,0,2012-11-30 20:55:00
2:15 PM,35.6,30.2,81,29.65,10.0,Calm,Calm,-,N/A,,Clear,0,2012-11-30 21:15:00
3:15 PM,37.4,30.2,75,29.63,10.0,Calm,Calm,-,N/A,,Clear,0,2012-11-30 22:15:00
3:35 PM,33.8,28.4,81,29.64,10.0,Calm,Calm,-,N/A,,Partly Cloudy,0,2012-11-30 22:35:00
3:55 PM,33.8,30.2,87,29.65,10.0,Calm,Calm,-,N/A,,Mostly Cloudy,0,2012-11-30 22:55:00
4:15 PM,33.8,28.4,81,29.65,10.0,Calm,Calm,-,N/A,,Mostly Cloudy,0,2012-11-30 23:15:00
4:35 PM,33.8,30.2,87,29.64,10.0,SSE,3.5,-,N/A,,Mostly Cloudy,150,2012-11-30 23:35:00
5:15 PM,33.8,28.4,81,29.64,10.0,Calm,Calm,-,N/A,,Overcast,0,2012-12-01 00:15:00
5:35 PM,35.6,32.0,87,29.64,10.0,SSW,4.6,-,N/A,,Overcast,200,2012-12-01 00:35:00
5:55 PM,35.6,30.2,81,29.64,10.0,Calm,Calm,-,N/A,,Mostly Cloudy,0,2012-12-01 00:55:00
6:15 PM,37.4,30.2,75,29.64,10.0,Calm,Calm,-,N/A,,Mostly Cloudy,0,2012-12-01 01:15:00
6:35 PM,33.8,30.2,87,29.64,10.0,Calm,Calm,-,N/A,,Overcast,0,2012-12-01 01:35:00
6:55 PM,33.8,28.4,81,29.63,10.0,Calm,Calm,-,N/A,,Overcast,0,2012-12-01 01:55:00
7:15 PM,33.8,30.2,87,29.64,10.0,SW,3.5,-,N/A,,Mostly Cloudy,220,2012-12-01 02:15:00
7:35 PM,30.2,28.4,93,29.64,10.0,Calm,Calm,-,N/A,,Scattered Clouds,0,2012-12-01 02:35:00
8:15 PM,32.0,30.2,93,29.64,10.0,SW,4.6,-,N/A,,Mostly Cloudy,220,2012-12-01 03:15:00
8:35 PM,33.8,30.2,87,29.64,10.0,Calm,Calm,-,N/A,,Overcast,0,2012-12-01 03:35:00
8:55 PM,33.8,30.2,87,29.63,10.0,Calm,Calm,-,N/A,,Overcast,0,2012-12-01 03:55:00
9:16 PM,33.8,30.2,87,29.63,10.0,Calm,Calm,-,N/A,,Overcast,0,2012-12-01 04:16:00
9:35 PM,33.8,28.4,81,29.63,10.0,SSW,3.5,-,N/A,,Mostly Cloudy,200,2012-12-01 04:35:00
9:55 PM,30.2,28.4,93,29.63,10.0,SSW,3.5,-,N/A,,Overcast,210,2012-12-01 04:55:00
10:15 PM,30.2,28.4,93,29.63,10.0,Calm,Calm,-,N/A,,Scattered Clouds,0,2012-12-01 05:15:00
10:35 PM,33.8,30.2,87,29.64,10.0,SW,6.9,-,N/A,,Clear,230,2012-12-01 05:35:00
10:55 PM,32.0,26.6,80,29.64,10.0,South,3.5,-,N/A,,Clear,180,2012-12-01 05:55:00
11:15 PM,30.2,26.6,86,29.64,10.0,Calm,Calm,-,N/A,,Clear,0,2012-12-01 06:15:00
11:35 PM,28.4,26.6,93,29.65,10.0,South,3.5,-,N/A,,Clear,180,2012-12-01 06:35:00
11:55 PM,26.6,24.8,93,29.66,10.0,South,6.9,-,N/A,,Clear,180,2012-12-01 06:55:00